Temp
15 14 12 11 12 11 10 10 9 10 10 9 8 8 6 5 5 4 3 2 2 2 2 1 -0 0 1 1 1 0 0 0 0 0 1 0 -0 -1 -1 -2 -3 -4 -4
15 14 13 11 11 10 10 9 9 9 9 8 8 7 6 6 5 5 1 1 1 1 1 -1 -0 0 0 0 0 -0 -0 -0 -0 -0 -0 -0 -1 -1 -2 -2 -3 -4 -4
14 13 11 11 11 9 9 9 9 9 9 8 6 6 5 5 4 2 1 1 1 1 0 -0 0 0 0 0 -0 -0 -0 0 -0 -1 -1 -1 -1 -1 -2 -2 -3 -4 -4
12 11 10 10 9 9 9 8 8 8 7 6 6 5 4 3 2 1 1 1 1 -0 -0 -1 -0 -0 0 -0 -0 -0 -0 -0 -0 -1 -1 -1 -1 -1 -2 -3 -4 -4 -4
10 10 9 9 9 8 8 8 8 7 6 5 4 3 2 1 1 1 1 0 -0 -1 -1 -1 -0 -0 -0 -0 -1 -1 -1 -1 -1 -1 -1 -1 -2 -2 -3 -3 -4 -4 -4
10 9 9 8 8 7 7 6 6 6 5 4 3 2 1 2 1 0 -0 -1 -1 -1 -1 -0 0 0 0 -0 -1 -1 -1 -2 -3 -3 -3 -3 -3 -4 -4 -5 -5 -5 -5
8 8 7 6 6 5 4 5 5 3 3 2 2 1 1 1 0 -0 -1 -1 -2 -1 -1 -1 -0 0 -0 -0 -0 -1 -2 -2 -3 -3 -4 -4 -5 -5 -5 -6 -6 -6 -6
5 4 4 3 4 3 4 3 3 2 1 1 1 0 -0 -0 -1 -1 -1 -1 -1 -2 -2 -1 -1 -1 -1 -1 -1 -1 -2 -3 -3 -4 -5 -5 -6 -6 -6 -6 -7 -7 -7
4 3 3 3 4 3 3 2 1 1 0 -1 -1 -0 -1 -1 -1 -2 -2 -2 -3 -3 -3 -2 -2 -2 -2 -2 -2 -3 -3 -3 -3 -4 -5 -4 -5 -6 -6 -7 -8 -8 -8
3 3 2 2 1 1 1 0 0 0 0 -0 -1 -1 -2 -2 -2 -3 -2 -3 -3 -4 -4 -4 -4 -4 -4 -4 -4 -4 -4 -4 -4 -4 -5 -5 -6 -6 -6 -7 -8 -9 -8
2 2 1 2 1 0 0 0 -0 -0 -1 -2 -1 -3 -3 -3 -4 -4 -3 -3 -4 -4 -4 -5 -6 -7 -6 -6 -6 -5 -5 -5 -5 -5 -5 -5 -6 -7 -7 -8 -8 -9 -9
1 1 1 0 0 -0 -0 -1 -1 -1 -2 -2 -3 -3 -4 -5 -5 -6 -6 -6 -6 -7 -7 -6 -6 -7 -7 -7 -7 -7 -7 -6 -6 -5 -6 -5 -6 -7 -7 -7 -8 -8 -9
1 0 -1 -1 -1 -1 -1 -2 -1 -2 -3 -4 -4 -5 -5 -6 -6 -7 -7 -6 -6 -6 -7 -7 -7 -7 -7 -7 -7 -7 -7 -7 -7 -6 -6 -6 -6 -6 -7 -7 -8 -8 -8
-0 -1 -1 -1 -2 -2 -2 -3 -3 -4 -4 -4 -6 -6 -7 -8 -8 -8 -7 -7 -8 -8 -8 -8 -8 -8 -8 -8 -7 -7 -7 -7 -7 -7 -6 -6 -6 -7 -7 -7 -8 -8 -9
-1 -2 -2 -2 -2 -3 -4 -3 -3 -3 -3 -4 -6 -6 -7 -8 -9 -8 -9 -9 -9 -9 -9 -10 -10 -9 -8 -8 -8 -7 -7 -7 -7 -6 -7 -6 -6 -7 -7 -7 -8 -8 -9
-3 -2 -2 -2 -2 -4 -5 -5 -5 -5 -5 -5 -6 -7 -8 -8 -9 -9 -10 -9 -10 -10 -11 -11 -11 -11 -10 -10 -9 -8 -7 -7 -6 -7 -7 -7 -7 -7 -7 -8 -8 -8 -9
-3 -1 -2 -3 -5 -5 -6 -7 -6 -7 -7 -8 -9 -9 -8 -9 -10 -10 -10 -10 -11 -12 -12 -12 -12 -12 -12 -12 -10 -9 -7 -7 -7 -7 -7 -7 -7 -8 -8 -8 -8 -8 -9
-2 -3 -5 -6 -7 -7 -8 -7 -9 -9 -10 -10 -11 -11 -11 -10 -10 -10 -10 -11 -12 -13 -13 -13 -13 -14 -14 -13 -12 -10 -9 -8 -7 -7 -7 -7 -7 -8 -8 -8 -8 -8 -9
-5 -5 -5 -5 -5 -6 -7 -8 -10 -11 -11 -11 -11 -12 -12 -13 -11 -13 -14 -14 -14 -14 -14 -14 -14 -15 -15 -15 -14 -11 -10 -9 -8 -8 -8 -8 -8 -8 -8 -8 -8 -9 -9
-5 -6 -6 -7 -8 -9 -9 -10 -11 -12 -12 -12 -12 -13 -14 -13 -12 -14 -14 -15 -15 -15 -16 -16 -16 -16 -16 -16 -15 -13 -12 -10 -9 -9 -8 -8 -8 -8 -8 -8 -8 -9 -10
-9 -7 -7 -8 -9 -10 -10 -12 -13 -13 -13 -13 -14 -14 -15 -14 -16 -15 -15 -15 -16 -16 -17 -17 -17 -17 -17 -17 -17 -16 -13 -12 -12 -11 -9 -8 -8 -8 -8 -8 -9 -9 -9
-7 -8 -8 -9 -10 -11 -11 -12 -14 -14 -14 -15 -15 -15 -16 -16 -16 -16 -17 -17 -17 -18 -18 -18 -18 -19 -18 -18 -18 -17 -15 -14 -13 -13 -11 -9 -9 -9 -9 -9 -9 -9 -10
-9 -9 -10 -11 -11 -12 -14 -15 -15 -15 -16 -16 -16 -16 -17 -17 -17 -18 -18 -18 -19 -19 -19 -19 -20 -20 -19 -19 -19 -19 -17 -15 -14 -14 -13 -11 -10 -9 -9 -9 -9 -9 -10
-10 -11 -11 -12 -14 -13 -16 -16 -16 -17 -17 -17 -17 -17 -18 -18 -18 -19 -19 -19 -20 -20 -20 -20 -20 -20 -20 -20 -19 -19 -17 -16 -15 -14 -14 -12 -11 -10 -9 -9 -9 -9 -10
-12 -13 -15 -16 -16 -17 -17 -17 -17 -18 -18 -18 -18 -19 -19 -19 -19 -20 -20 -20 -21 -21 -21 -19 -19 -20 -20 -19 -18 -17 -16 -16 -15 -14 -14 -13 -11 -10 -10 -9 -9 -9 -10
-16 -17 -17 -17 -17 -18 -18 -18 -19 -19 -19 -19 -20 -20 -20 -20 -21 -21 -21 -21 -21 -21 -19 -20 -19 -19 -18 -18 -17 -17 -16 -15 -15 -14 -14 -13 -11 -10 -10 -9 -9 -9 -10
Height
1486 1487 1489 1489 1492 1495 1498 1499 1500 1501 1502 1503 1504 1504 1504 1508 1514 1515 1516 1516 1520 1521 1523 1522 1523 1526 1526 1526 1525 1522 1520 1519 1515 1513 1512 1511 1509 1507 1504 1501 1498 1497 1494
1481 1484 1483 1485 1487 1489 1491 1494 1495 1496 1496 1497 1500 1501 1503 1507 1509 1509 1513 1517 1518 1518 1519 1520 1521 1521 1520 1520 1519 1519 1515 1513 1511 1507 1506 1505 1503 1500 1497 1495 1492 1491 1488
1478 1480 1478 1480 1482 1484 1486 1489 1490 1491 1493 1494 1495 1496 1499 1502 1504 1506 1510 1512 1513 1512 1513 1516 1516 1515 1514 1513 1512 1512 1509 1506 1504 1501 1498 1497 1495 1492 1490 1488 1485 1483 1481
1468 1470 1474 1477 1479 1481 1483 1484 1486 1487 1488 1490 1492 1495 1498 1501 1502 1505 1507 1508 1508 1508 1509 1509 1510 1509 1509 1508 1506 1504 1502 1499 1496 1494 1491 1489 1487 1485 1483 1481 1478 1477 1475
1465 1468 1471 1473 1475 1477 1479 1481 1483 1484 1486 1489 1491 1494 1496 1499 1502 1503 1503 1503 1502 1503 1504 1504 1504 1503 1502 1501 1499 1496 1494 1492 1489 1486 1483 1481 1479 1478 1477 1475 1472 1471 1468
1462 1466 1469 1472 1474 1476 1477 1479 1481 1483 1485 1488 1491 1494 1496 1498 1499 1499 1499 1498 1498 1499 1499 1499 1498 1496 1493 1490 1488 1486 1485 1483 1481 1480 1476 1474 1472 1472 1471 1468 1466 1465 1462
1463 1466 1468 1471 1474 1475 1477 1479 1481 1484 1487 1490 1492 1494 1495 1495 1495 1494 1494 1494 1494 1494 1493 1492 1490 1489 1487 1484 1481 1476 1473 1471 1470 1469 1468 1467 1466 1465 1464 1461 1460 1459 1457
1465 1468 1470 1472 1473 1475 1477 1480 1483 1485 1488 1489 1490 1491 1492 1492 1492 1492 1492 1490 1489 1488 1487 1485 1483 1480 1478 1476 1472 1469 1465 1461 1459 1458 1456 1456 1457 1457 1457 1456 1454 1452 1450
1466 1468 1470 1472 1474 1476 1478 1480 1483 1484 1486 1487 1488 1490 1492 1493 1490 1488 1486 1485 1483 1481 1480 1478 1475 1472 1469 1466 1463 1458 1454 1451 1451 1448 1446 1446 1447 1447 1448 1449 1447 1447 1443
1467 1469 1471 1473 1475 1476 1478 1479 1481 1484 1486 1487 1488 1488 1488 1488 1485 1482 1480 1478 1475 1473 1470 1467 1464 1462 1458 1455 1451 1447 1443 1440 1440 1440 1436 1436 1437 1437 1438 1439 1439 1438 1438
1466 1468 1470 1472 1474 1476 1478 1480 1482 1483 1483 1483 1483 1483 1483 1483 1481 1476 1474 1472 1469 1464 1461 1456 1454 1451 1447 1443 1440 1436 1433 1432 1430 1429 1428 1427 1427 1428 1429 1429 1430 1430 1431
1465 1467 1469 1471 1473 1475 1477 1478 1479 1480 1479 1480 1479 1478 1478 1477 1474 1470 1468 1465 1463 1458 1453 1449 1444 1439 1435 1431 1428 1424 1422 1421 1418 1418 1418 1418 1418 1419 1422 1424 1423 1423 1424
1465 1467 1468 1471 1473 1474 1475 1475 1477 1477 1476 1476 1474 1474 1474 1472 1471 1467 1462 1460 1457 1451 1447 1441 1435 1429 1424 1419 1417 1414 1412 1410 1409 1407 1406 1407 1408 1411 1414 1416 1417 1418 1418
1463 1465 1467 1469 1470 1471 1472 1472 1473 1471 1470 1470 1470 1469 1468 1467 1465 1459 1456 1452 1448 1444 1439 1433 1428 1422 1417 1413 1409 1406 1403 1401 1399 1399 1398 1399 1402 1403 1406 1407 1409 1410 1411
1461 1463 1465 1466 1468 1469 1469 1468 1467 1466 1465 1465 1464 1463 1461 1460 1458 1455 1451 1446 1442 1438 1432 1427 1424 1419 1413 1408 1403 1400 1397 1394 1392 1391 1390 1392 1394 1397 1398 1401 1403 1404 1404
1458 1460 1462 1464 1465 1467 1467 1465 1464 1463 1461 1460 1459 1458 1457 1454 1452 1448 1445 1442 1438 1433 1428 1426 1420 1415 1410 1405 1399 1392 1390 1388 1385 1385 1386 1388 1390 1392 1393 1395 1397 1398 1399
1455 1457 1460 1461 1462 1463 1463 1463 1463 1460 1457 1455 1453 1451 1450 1449 1446 1443 1439 1436 1432 1429 1427 1423 1418 1413 1407 1402 1396 1390 1383 1382 1382 1381 1382 1384 1385 1386 1388 1389 1390 1391 1393
1454 1456 1458 1459 1459 1459 1459 1459 1459 1458 1457 1456 1452 1449 1446 1443 1441 1437 1434 1430 1430 1426 1424 1419 1414 1409 1404 1398 1393 1388 1382 1378 1379 1379 1379 1380 1380 1381 1382 1383 1385 1386 1387
1453 1453 1455 1456 1456 1456 1455 1454 1454 1454 1453 1451 1450 1448 1445 1438 1435 1432 1430 1429 1426 1423 1420 1416 1411 1406 1401 1395 1390 1385 1382 1379 1376 1376 1375 1375 1375 1376 1377 1378 1379 1381 1382
1451 1452 1453 1453 1453 1453 1452 1451 1452 1451 1450 1448 1446 1443 1439 1433 1430 1430 1428 1425 1422 1419 1415 1411 1406 1402 1398 1393 1387 1383 1378 1376 1373 1371 1371 1370 1371 1371 1372 1372 1374 1376 1377
1450 1449 1449 1450 1450 1449 1448 1448 1447 1447 1445 1443 1441 1438 1433 1429 1427 1427 1424 1421 1418 1414 1410 1406 1401 1397 1393 1389 1385 1380 1376 1373 1370 1368 1367 1366 1367 1366 1367 1368 1370 1371 1373
1447 1447 1446 1446 1447 1446 1444 1444 1443 1442 1441 1439 1436 1434 1429 1426 1425 1422 1419 1416 1412 1409 1405 1400 1396 1392 1389 1385 1381 1377 1373 1370 1367 1365 1362 1362 1362 1362 1362 1363 1365 1367 1369
1444 1444 1443 1443 1442 1441 1440 1440 1439 1438 1436 1433 1431 1429 1426 1423 1420 1417 1414 1410 1406 1403 1398 1394 1390 1386 1382 1379 1376 1373 1369 1366 1364 1361 1358 1358 1358 1358 1359 1359 1361 1363 1365
1441 1440 1439 1439 1438 1437 1436 1435 1434 1432 1430 1428 1426 1424 1421 1418 1415 1412 1408 1405 1400 1396 1392 1388 1384 1379 1375 1372 1369 1366 1363 1361 1359 1357 1355 1353 1353 1354 1353 1355 1357 1358 1361
1436 1436 1436 1436 1435 1434 1432 1431 1429 1427 1425 1423 1421 1418 1415 1412 1409 1406 1403 1399 1394 1390 1386 1381 1376 1373 1370 1365 1361 1359 1356 1354 1353 1351 1349 1348 1347 1348 1349 1351 1352 1354 1357
1434 1434 1433 1432 1431 1430 1428 1426 1424 1422 1420 1418 1415 1412 1410 1407 1403 1400 1397 1392 1389 1384 1379 1375 1371 1367 1362 1358 1355 1352 1349 1348 1347 1346 1344 1342 1342 1342 1344 1346 1348 1350 1352
Wind_Speed
24 27 28 31 28 28 28 30 29 26 23 22 27 27 26 27 20 26 26 24 23 19 19 19 15 16 17 17 17 17 18 18 23 25 21 22 23 23 24 25 23 24 27
21 20 25 23 20 21 18 20 22 23 23 25 27 24 13 14 20 26 20 16 12 17 19 14 18 17 20 19 20 21 21 21 23 27 27 26 26 25 26 26 25 26 26
16 17 23 20 16 18 20 20 21 19 21 23 22 17 18 20 21 16 16 13 14 16 13 17 21 21 22 21 22 24 24 24 25 26 30 28 29 27 27 26 26 26 26
24 23 19 17 15 15 15 15 14 14 12 11 15 19 18 13 12 13 11 15 15 11 18 21 22 22 23 23 25 27 28 29 28 28 30 31 30 28 25 26 27 26 24
13 14 14 13 12 9 8 8 8 9 10 8 10 14 10 12 10 13 16 16 16 21 18 21 22 24 26 29 31 33 30 30 29 29 30 29 29 27 27 27 27 25 24
12 11 11 8 8 8 7 5 6 9 8 8 9 9 8 9 13 14 17 17 19 16 19 21 24 26 30 33 34 34 35 36 36 31 32 31 30 28 29 28 25 23 26
10 11 11 12 12 10 10 9 7 6 7 6 6 8 11 13 16 15 11 14 15 17 20 23 26 28 31 31 33 36 37 38 37 38 40 36 33 31 29 25 22 23 25
16 16 16 15 13 12 9 9 7 6 5 5 7 9 10 7 13 13 15 19 22 22 23 25 28 31 32 33 36 38 38 36 34 36 34 31 27 25 24 22 20 20 23
17 16 16 14 12 9 8 7 5 3 3 2 2 1 4 5 14 19 21 20 21 22 23 25 27 31 34 36 38 40 41 43 40 37 33 36 35 35 33 30 28 24 27
17 16 14 12 11 9 3 1 3 4 3 3 3 4 7 7 13 20 23 25 26 27 28 28 30 32 33 35 36 39 42 44 41 38 34 33 30 32 31 34 32 27 25
16 15 12 7 6 7 7 6 5 4 2 3 5 6 7 8 9 20 24 25 25 29 32 35 34 31 33 36 40 42 42 41 39 37 36 30 27 21 19 22 21 19 20
14 12 10 9 8 7 6 4 2 1 2 3 8 8 7 8 11 18 22 25 26 30 33 35 36 37 39 40 40 41 40 42 39 39 38 32 27 24 23 22 22 22 22
13 11 9 9 7 6 5 2 2 2 3 5 6 6 7 9 9 16 24 25 27 28 31 34 37 38 37 36 35 35 36 35 33 34 35 40 33 27 23 25 23 23 24
13 11 10 9 6 4 2 1 2 5 5 6 6 6 8 11 10 19 25 26 26 29 31 34 33 30 28 29 32 33 30 28 28 28 31 36 29 23 24 26 24 24 23
12 10 8 6 5 2 3 5 5 9 8 8 8 10 13 14 16 21 23 25 27 29 30 28 26 26 28 29 30 30 28 27 26 26 29 30 23 19 23 24 25 24 21
11 9 7 5 4 3 2 7 9 10 10 11 11 12 14 17 19 21 23 24 24 25 22 22 25 25 25 25 27 28 29 25 24 21 19 18 19 20 21 22 23 24 20
10 7 6 5 4 4 3 3 3 12 15 16 16 16 17 18 18 21 23 22 19 20 17 20 23 25 26 25 29 28 21 21 18 18 15 17 19 19 21 22 24 22 20
6 5 3 3 3 3 4 5 5 6 7 8 12 18 20 20 19 21 21 18 15 16 16 19 22 24 25 25 26 27 22 14 9 12 15 17 19 21 22 23 22 21 19
5 4 4 5 6 7 7 7 7 7 8 10 10 11 13 24 20 16 18 14 16 17 18 19 20 22 23 24 24 23 23 16 11 16 16 17 18 21 22 23 21 19 17
3 3 4 5 6 6 6 6 6 7 9 10 11 12 15 20 19 14 15 16 16 17 19 19 20 21 23 23 23 23 21 19 13 13 13 15 17 17 21 22 20 18 17
3 5 5 6 7 8 8 8 9 8 9 11 11 13 22 22 15 15 16 16 18 19 20 21 22 22 22 23 22 22 22 20 17 12 11 9 15 17 21 22 19 18 17
6 7 7 8 9 10 10 10 9 9 10 11 12 13 19 15 14 15 16 17 19 19 20 22 23 22 22 22 22 22 22 21 18 14 14 10 10 13 18 19 18 18 17
7 8 8 9 10 11 9 8 9 10 11 11 12 13 14 14 15 16 17 19 19 21 21 22 23 23 23 21 22 21 23 21 20 19 18 15 14 11 15 19 19 19 18
8 9 9 10 10 11 8 10 10 11 12 12 13 13 14 15 16 17 18 20 21 21 22 22 23 26 24 23 23 22 22 21 21 21 20 18 16 15 11 19 21 20 18
9 9 9 8 8 9 9 10 11 11 12 13 13 14 15 16 17 17 18 20 22 21 22 25 23 22 24 26 26 24 21 21 21 20 20 20 18 18 16 16 21 20 18
8 8 8 9 9 10 11 12 12 13 13 13 14 15 15 16 17 17 19 19 20 23 25 24 25 26 26 26 24 22 21 20 20 20 20 21 19 17 18 15 21 22 20
Wind_Direction
216 226 232 234 242 244 245 239 241 258 265 258 246 250 233 226 240 251 248 240 248 264 278 277 258 251 257 262 263 263 264 266 273 280 279 280 280 280 279 281 280 287 288
212 214 234 240 243 236 243 243 245 252 249 251 245 248 221 243 251 254 239 249 276 287 283 265 255 257 258 260 263 267 267 268 271 277 281 280 281 282 279 278 277 286 283
197 200 217 232 226 226 231 239 254 257 261 254 246 210 216 233 241 235 232 250 291 283 263 260 258 259 259 260 263 267 269 271 270 272 277 280 282 283 279 277 277 281 283
191 203 211 217 221 229 240 247 249 247 237 230 225 225 224 236 215 212 251 292 285 271 260 257 258 260 261 265 267 269 270 270 269 271 272 275 279 283 280 281 278 278 280
193 193 201 208 215 212 219 226 229 222 205 215 219 215 217 200 231 271 277 289 264 261 263 263 265 265 266 264 264 268 268 274 273 273 275 278 280 286 283 281 280 281 284
182 181 178 179 185 174 172 181 189 193 199 187 183 182 193 262 278 279 285 281 276 274 273 271 270 272 274 276 276 274 277 271 265 272 276 279 278 278 277 277 280 282 285
163 148 145 148 152 146 148 154 158 142 152 162 193 235 267 281 291 287 279 277 276 275 276 277 276 276 277 277 278 280 275 273 268 267 269 268 275 276 278 277 277 277 281
124 125 128 131 128 126 122 129 139 148 170 218 256 281 299 331 303 297 289 285 284 282 283 284 282 282 280 279 279 275 275 272 269 263 257 265 271 269 267 270 273 276 279
128 129 128 128 125 130 141 148 168 209 259 301 12 337 273 284 285 285 286 288 289 288 287 285 284 283 280 280 280 281 278 276 272 270 268 268 272 264 268 260 264 273 273
130 128 127 126 128 137 154 180 99 108 158 184 233 269 278 298 291 284 286 289 290 290 287 286 280 273 273 276 278 277 279 276 278 270 259 258 262 262 265 262 265 257 260
133 133 135 138 120 123 134 142 148 169 188 256 290 278 291 289 285 284 288 291 293 294 297 297 295 293 289 283 276 277 276 277 277 275 267 251 251 241 255 261 249 253 253
136 136 131 136 136 137 142 141 140 198 252 272 278 294 297 296 296 295 296 297 302 301 302 302 301 300 294 288 286 283 282 275 278 269 265 247 240 237 252 245 253 258 250
136 135 135 134 135 138 143 158 188 261 278 276 297 299 303 295 306 296 288 305 311 312 311 311 313 311 305 299 294 296 286 283 276 275 263 251 248 257 251 246 243 245 251
142 143 146 148 143 146 143 158 221 255 269 288 298 299 295 302 309 290 311 319 321 320 319 318 320 320 319 313 304 298 291 288 272 268 264 256 249 239 241 241 242 245 250
149 149 153 165 163 161 215 227 262 276 287 290 281 291 298 305 298 311 316 321 323 322 322 327 323 312 307 307 307 301 290 282 280 273 266 243 237 246 255 235 239 245 245
149 166 182 196 210 187 210 303 299 298 296 299 297 300 302 304 309 313 316 318 321 324 330 322 319 321 319 320 322 306 292 283 275 269 246 243 245 247 245 240 248 249 242
167 188 202 218 208 230 261 277 275 306 314 319 317 314 309 310 313 315 315 318 327 331 329 323 319 321 321 322 326 331 323 276 267 258 249 248 249 247 243 247 247 247 239
188 196 182 192 222 241 263 274 281 282 284 290 303 303 309 310 318 317 317 327 327 328 325 323 322 320 323 323 323 321 334 347 289 261 268 257 258 250 249 249 243 237 241
161 187 214 251 264 272 278 284 286 290 289 293 298 304 297 300 320 333 330 326 321 321 319 319 320 320 319 321 320 321 312 322 319 283 272 265 263 249 251 249 237 241 230
233 250 259 275 287 286 289 289 290 290 290 294 297 298 297 310 324 324 319 318 316 313 314 315 315 314 316 318 320 320 318 305 306 347 282 274 256 253 252 242 240 229 220
234 282 280 280 277 280 284 286 286 290 291 293 296 298 295 308 319 312 312 313 310 310 311 311 312 311 312 314 315 316 318 316 305 317 312 285 278 270 255 243 237 223 220
268 278 284 282 282 285 288 290 289 291 293 295 296 297 301 321 306 306 308 306 306 310 306 306 306 307 307 308 310 310 312 314 313 302 288 270 265 278 258 237 230 220 218
280 284 287 285 288 290 299 291 292 294 293 296 299 301 303 304 303 306 306 307 308 305 306 304 304 303 303 303 301 302 303 305 307 300 297 283 260 264 254 244 228 218 220
289 290 290 291 290 294 291 289 294 297 300 300 300 300 302 303 304 306 308 307 307 307 308 309 304 303 306 302 300 299 293 295 295 294 298 293 273 247 257 249 232 221 221
301 300 297 294 292 290 293 296 294 297 298 299 300 300 302 304 306 307 308 307 307 313 310 315 320 314 306 304 302 301 298 288 286 292 293 290 275 249 242 238 237 222 217
304 301 296 292 291 291 291 293 294 296 298 300 300 303 303 305 306 309 308 311 312 309 319 321 319 319 315 312 309 301 295 287 282 284 290 288 277 254 230 242 238 223 214